Location: Coopersdale
(40.3556°N, 78.9372°W)
Time: 15:05:59
(UTC+00:00)

Transit 4A - Visible Passes

Search period start: 23 January 2021 00:00
Search period end: 02 February 2021 00:00
Orbit: 864 x 980 km, 66.8° (Epoch: 23 January)

Date Brightness Start Highest point End Pass type
(mag) Time Alt. Az. Time Alt. Az. Time Alt. Az.
23 Jan 7.9 00:16:48 10° SSW 00:23:11 74° ESE 00:25:51 37° NE visible
23 Jan 9.9 02:05:12 10° W 02:09:26 23° NW 02:09:26 23° NW visible
23 Jan 8.9 09:29:09 38° SE 09:29:09 38° SE 09:32:45 10° SE visible
23 Jan 9.3 11:12:45 17° WSW 11:12:45 17° WSW 11:16:08 10° SW visible
24 Jan 8.0 00:26:05 10° SSW 00:32:30 78° WNW 00:35:54 30° NNE visible
24 Jan 10.3 02:15:49 10° W 02:19:28 17° NW 02:19:28 17° NW visible
24 Jan 9.2 09:39:23 28° SSE 09:39:23 28° SSE 09:42:03 10° SSE visible
24 Jan 9.0 22:50:44 10° SSE 22:55:54 26° ESE 23:01:04 10° NE visible
25 Jan 8.6 00:35:37 10° SW 00:41:53 55° NW 00:45:50 23° NNE visible
25 Jan 10.5 02:26:55 10° WNW 02:29:24 13° NW 02:29:24 13° NW visible
25 Jan 9.7 09:49:39 18° S 09:49:39 18° S 09:51:05 10° S visible
25 Jan 8.5 22:59:08 10° S 23:05:00 39° ESE 23:10:52 10° NE visible
26 Jan 9.2 00:45:25 10° WSW 00:51:22 39° NW 00:55:39 18° N visible
26 Jan 8.1 23:07:57 10° S 23:14:10 58° ESE 23:20:26 10° NE visible
27 Jan 9.7 00:55:30 10° WSW 01:00:56 28° NW 01:05:23 14° N visible
27 Jan 8.0 23:17:02 10° SSW 23:23:27 84° ESE 23:29:52 10° NNE visible
28 Jan 10.1 01:05:54 10° W 01:10:36 21° NW 01:15:00 11° N visible
28 Jan 8.3 23:26:25 10° SW 23:32:47 69° WNW 23:39:10 10° NNE visible
29 Jan 10.4 01:16:40 10° WNW 01:20:22 16° NW 01:24:03 10° N visible
29 Jan 8.9 23:36:03 10° SW 23:42:13 48° NW 23:48:22 10° NNE visible
30 Jan 10.5 01:28:05 10° NW 01:30:14 12° NNW 01:32:22 10° NNW visible
30 Jan 9.4 23:45:57 10° WSW 23:51:44 34° NW 23:57:29 10° NNE visible
31 Jan 9.9 23:56:08 10° W 00:01:20 25° NW 00:06:30 10° N visible
